Weather History for Burlington, VT

Change the Weather History Date:

Friday, November 15, 2013

  Actual Average Record
Temperature  
Mean Temperature 45 °F 39 °F  
Max Temperature 53 °F 46 °F 67 °F (1956)
Min Temperature 36 °F 31 °F 9 °F (1933)
Degree Days  
Heating Degree Days 20 26  
Month to date heating degree days 371 361  
Since 1 July heating degree days 990 1102  
Cooling Degree Days 0 0  
Month to date cooling degree days 0 0  
Year to date cooling degree days 662 491  
Moisture  
Dew Point 19 °F    
Average Humidity 45    
Maximum Humidity 64    
Minimum Humidity 26    
Precipitation  
Precipitation 0.00 in 0.10 in 1.01 in (2007)
Month to date precipitation 0.58 1.63  
Year to date precipitation 40.60 32.94  
Snow  
Snow 0.00 in 0.10 in 5.50 in (1921)
Month to date snowfall 0.3 1.6  
Since 1 July snowfall 0.3 1.9  
Since 1 September snowfall 0.3 1.9  
Snow Depth 0.00 in    
Sea Level Pressure  
Sea Level Pressure 30.10 in    
Wind  
Wind Speed 8 mph (South)    
Max Wind Speed 18 mph    
Max Gust Speed 24 mph    
Visibility 10 miles    
Events      
T = Trace of Precipitation, MM = Missing Value Source: NWS Daily Summary

Daily Weather History Graph

Daily Weather History Graph

Search for Another Location

Airport:

Trip Planner

Search our weather history database for the weather conditions in past years. The results will help you decide how hot, cold, wet, or windy it might be!

Date:

Astronomy

Nov. 15, 2013 Rise Set
Actual Time 6:49 AM EST 4:24 PM EST
Civil Twilight 6:17 AM EST 4:56 PM EST
Nautical Twilight 5:42 AM EST 5:31 PM EST
Astronomical Twilight 5:08 AM EST 6:05 PM EST
Moon 3:23 PM EST (11/15) 4:38 AM EST (11/15)
Length of Visible Light 10h 38m
Length of Day
9h 35m
Waxing Gibbous, 96% of the Moon is Illuminated
Nov 15
Waxing Gibbous
Nov 17
Full
Nov 25
Last Quarter
Dec 2
New
Dec 9
First Quarter

Hourly Weather History & Observations

Time (EST) Temp. Windchill Dew Point Humidity Pressure Visibility Wind Dir Wind Speed Gust Speed Precip Events Conditions
12:54 AM 39.9 °F 33.9 °F 19.9 °F 45% 30.05 in 10.0 mi South 9.2 mph - N/A   Mostly Cloudy
1:54 AM 41.0 °F 34.7 °F 18.0 °F 40% 30.06 in 10.0 mi South 10.4 mph - N/A   Scattered Clouds
2:54 AM 39.9 °F 32.9 °F 17.1 °F 40% 30.06 in 10.0 mi South 11.5 mph - N/A   Clear
3:54 AM 39.9 °F 33.4 °F 17.1 °F 40% 30.07 in 10.0 mi South 10.4 mph - N/A   Clear
4:54 AM 39.9 °F 33.4 °F 16.0 °F 38% 30.08 in 10.0 mi South 10.4 mph - N/A   Clear
5:54 AM 39.9 °F 32.5 °F 16.0 °F 38% 30.08 in 10.0 mi South 12.7 mph - N/A   Clear
6:54 AM 39.0 °F 33.4 °F 15.1 °F 38% 30.09 in 10.0 mi South 8.1 mph - N/A   Clear
7:54 AM 41.0 °F 33.9 °F 15.1 °F 35% 30.11 in 10.0 mi South 12.7 mph - N/A   Clear
8:54 AM 44.1 °F 38.1 °F 16.0 °F 32% 30.11 in 10.0 mi South 11.5 mph - N/A   Clear
9:54 AM 46.0 °F 40.6 °F 17.1 °F 31% 30.12 in 10.0 mi South 11.5 mph - N/A   Clear
10:54 AM 48.0 °F - 18.0 °F 30% 30.11 in 10.0 mi SSW 10.4 mph - N/A   Partly Cloudy
11:54 AM 50.0 °F - 18.0 °F 28% 30.09 in 10.0 mi South 11.5 mph 18.4 mph N/A   Partly Cloudy
12:54 PM 51.1 °F - 18.0 °F 27% 30.08 in 10.0 mi SSW 12.7 mph - N/A   Clear
1:54 PM 53.1 °F - 19.0 °F 26% 30.06 in 10.0 mi SSW 12.7 mph 19.6 mph N/A   Clear
2:54 PM 53.1 °F - 19.9 °F 27% 30.07 in 10.0 mi South 10.4 mph - N/A   Clear
3:54 PM 50.0 °F - 19.9 °F 31% 30.07 in 10.0 mi South 6.9 mph - N/A   Clear
4:54 PM 48.0 °F - 19.0 °F 32% 30.08 in 10.0 mi Calm Calm - N/A   Clear
5:54 PM 46.0 °F - 19.9 °F 35% 30.10 in 10.0 mi Calm Calm - N/A   Clear
6:54 PM 39.9 °F - 21.9 °F 49% 30.11 in 10.0 mi Calm Calm - N/A   Clear
7:54 PM 37.9 °F 35.5 °F 24.1 °F 57% 30.12 in 10.0 mi ENE 3.5 mph - N/A   Clear
8:54 PM 37.9 °F - 25.0 °F 60% 30.13 in 10.0 mi Calm Calm - N/A   Clear
9:54 PM 37.0 °F 33.3 °F 26.1 °F 65% 30.14 in 10.0 mi ENE 4.6 mph - N/A   Clear
10:54 PM 37.0 °F - 26.1 °F 65% 30.16 in 10.0 mi Calm Calm - N/A   Clear
11:54 PM 37.0 °F - 26.1 °F 65% 30.16 in 10.0 mi Calm Calm - N/A   Clear